DW0088 Weather Reports


time (UTC)temp
F
wind
direction
speed
knots
gust
knots
rain 1hr
in
rain 24hr
in
rain mn
in
humidity
%
barometer
mb
20260507104939 58 47 4.3 7.0 0.00 0.00 0.00 64 1015.3
20260507103940 60 49 4.3 7.8 0.00 0.00 0.00 65 1015.1
20260507102939 60 80 3.5 7.8 0.00 0.00 0.00 65 1015.1
20260507101939 60 64 6.1 8.7 0.00 0.00 0.00 68 1015.1
20260507100939 59 52 5.2 10.4 0.00 0.00 0.00 66 1015.1
20260507094940 58 36 4.3 7.8 0.00 0.00 0.00 69 1015.1
20260507092940 58 37 4.3 7.8 0.00 0.00 0.00 74 1015.0
20260507091940 57 42 6.1 10.4 0.00 0.00 0.00 72 1015.0
20260507085940 57 38 5.2 7.8 0.00 0.00 0.00 72 1015.0
20260507084940 56 21 4.3 8.7 0.00 0.01 0.00 74 1015.0
20260507083939 56 358 3.5 6.1 0.00 0.01 0.00 76 1015.0
20260507081941 55 288 3.5 6.1 0.00 0.01 0.00 78 1014.9
20260507080940 54 280 3.5 6.1 0.00 0.01 0.00 80 1014.8
20260507075941 54 343 3.5 5.2 0.00 0.01 0.00 80 1014.7
20260507074941 53 29 3.5 6.1 0.00 0.01 0.00 81 1014.7
20260507073940 53 22 3.5 7.0 0.00 0.01 0.00 81 1014.6
20260507072940 52 29 4.3 7.8 0.00 0.01 0.00 83 1014.5
20260507071940 52 41 4.3 7.8 0.00 0.01 0.00 83 1014.5
20260507070941 51 15 3.5 6.1 0.00 0.01 0.00 84 1014.5
20260507065940 51 14 3.5 5.2 0.00 0.01 0.00 84 1014.5
20260507064939 51 31 4.3 9.6 0.00 0.01 0.00 85 1014.5
20260507063941 50 22 3.5 6.1 0.00 0.01 0.00 86 1014.5
20260507062940 50 328 3.5 6.1 0.00 0.01 0.00 87 1014.4
20260507061940 49 342 4.3 6.1 0.00 0.01 0.00 88 1014.4
20260507055940 48 328 3.5 6.1 0.00 0.01 0.00 89 1014.0
20260507054941 48 357 3.5 6.1 0.00 0.01 0.00 89 1014.0
20260507053940 48 3 3.5 6.1 0.00 0.01 0.00 89 1014.0
20260507052940 47 7 4.3 7.8 0.00 0.01 0.00 90 1013.9
20260507051940 47 4 3.5 6.1 0.00 0.01 0.00 91 1013.9
20260507050940 47 8 3.5 6.1 0.00 0.01 0.00 92 1013.8
20260507045941 47 341 3.5 5.2 0.00 0.01 0.00 93 1013.5
20260507043940 47 327 2.6 4.3 0.00 0.01 0.00 93 1013.5
20260507042941 47 344 2.6 4.3 0.00 0.02 0.00 93 1013.4
20260507041940 47 346 2.6 4.3 0.00 0.02 0.00 93 1013.4
20260507040940 47 305 2.6 4.3 0.00 0.02 0.00 93 1013.1
20260507035940 47 321 1.7 2.6 0.00 0.02 0.00 93 1013.0
20260507034940 47 311 1.7 2.6 0.00 0.02 0.00 93 1013.0
20260507032941 47 290 0.9 1.7 0.00 0.02 0.00 92 1012.9
20260507031941 47 291 0.9 2.6 0.00 0.02 0.00 92 1012.9
20260507030940 47 281 0.0 2.6 0.00 0.02 0.00 92 1012.9
20260507025941 47 288 0.0 0.9 0.00 0.02 0.00 92 1012.9
20260507024941 47 288 0.9 2.6 0.00 0.02 0.00 92 1012.9
20260507023940 48 282 0.9 2.6 0.00 0.02 0.00 91 1012.8
20260507022941 48 276 0.0 1.7 0.00 0.02 0.00 91 1012.6
20260507020941 48 288 1.7 3.5 0.00 0.02 0.00 90 1012.5
20260507014940 49 338 2.6 4.3 0.00 0.03 0.00 89 1012.4
20260507013941 49 326 3.5 5.2 0.00 0.03 0.00 89 1012.4
20260507012941 49 297 3.5 5.2 0.00 0.04 0.00 89 1012.4
20260507010941 49 268 1.7 2.6 0.00 0.05 0.00 88 1012.3
20260507005941 49 258 0.9 2.6 0.00 0.05 0.00 88 1012.2
20260507004940 49 256 1.7 3.5 0.00 0.06 0.00 88 1012.2
20260507002942 49 328 1.7 2.6 0.00 0.06 0.00 89 1012.0
20260507001941 49 303 2.6 3.5 0.00 0.06 0.00 89 1012.0
20260507000941 49 285 1.7 3.5 0.00 0.06 0.00 89 1011.9
20260506234942 49 273 0.9 2.6 0.00 0.06 0.00 89 1012.0
20260506233941 49 270 1.7 2.6 0.00 0.06 0.00 88 1011.9
20260506232941 49 259 1.7 2.6 0.00 0.06 0.00 88 1011.9
20260506231941 49 252 0.9 1.7 0.00 0.06 0.00 88 1011.9
20260506230940 49 265 0.9 1.7 0.00 0.06 0.00 89 1011.8
20260506225941 49 283 0.0 0.9 0.00 0.06 0.00 88 1011.8
20260506224941 49 285 0.9 2.6 0.00 0.06 0.00 88 1011.8
20260506223941 49 287 1.7 2.6 0.00 0.06 0.00 88 1011.7
20260506222941 49 298 1.7 3.5 0.00 0.06 0.00 88 1011.6
20260506221941 49 6 0.9 2.6 0.00 0.06 0.00 88 1011.6
20260506220941 49 6 0.9 2.6 0.00 0.06 0.00 87 1011.5
20260506215946 49 351 2.6 3.5 0.00 0.06 0.00 88 1011.4
20260506212942 50 293 3.5 4.3 0.00 0.06 0.06 87 1011.3
20260506211942 50 9 1.7 3.5 0.00 0.06 0.06 86 1011.3
20260506210942 50 13 1.7 3.5 0.00 0.06 0.06 84 1011.3
20260506205942 50 21 1.7 4.3 0.00 0.06 0.06 84 1011.3
20260506204941 50 19 1.7 3.5 0.00 0.06 0.06 84 1011.3
20260506203942 50 25 2.6 4.3 0.00 0.06 0.06 85 1011.2
20260506202942 50 23 1.7 4.3 0.00 0.06 0.06 85 1011.1
20260506201942 50 23 1.7 4.3 0.00 0.06 0.06 85 1011.1
20260506195942 50 3 1.7 3.5 0.00 0.06 0.06 86 1010.8
20260506194941 51 17 1.7 3.5 0.00 0.06 0.06 87 1010.8
20260506193941 51 24 0.9 3.5 0.00 0.06 0.06 87 1010.8
20260506192941 51 26 0.0 2.6 0.00 0.06 0.06 86 1010.6
20260506191942 51 25 1.7 3.5 0.00 0.06 0.06 85 1010.6
20260506190942 51 32 0.9 2.6 0.00 0.06 0.06 85 1010.3
20260506185942 51 37 1.7 3.5 0.00 0.06 0.06 85 1010.3
20260506184942 51 29 1.7 4.3 0.00 0.06 0.06 85 1010.3
20260506183943 51 38 3.5 7.0 0.00 0.06 0.06 84 1010.2
20260506181941 51 30 6.1 10.4 0.00 0.06 0.06 84 1009.9
20260506180941 51 26 3.5 6.1 0.00 0.06 0.06 85 1009.8
20260506175942 51 32 3.5 6.1 0.00 0.06 0.06 86 1009.7
20260506174942 51 40 3.5 6.1 0.00 0.06 0.06 86 1009.7
20260506173942 51 43 5.2 7.8 0.00 0.06 0.06 85 1009.4
20260506172942 51 45 5.2 7.8 0.00 0.06 0.06 86 1009.3
20260506171941 51 36 7.0 10.4 0.00 0.06 0.06 85 1009.3
20260506164942 51 32 5.2 8.7 0.00 0.06 0.06 85 1009.0
20260506163941 51 23 5.2 9.6 0.00 0.06 0.06 84 1009.0
20260506162942 51 27 6.1 11.3 0.00 0.06 0.06 83 1009.1
20260506161942 52 22 6.1 12.2 0.00 0.06 0.06 82 1009.1
20260506160942 52 30 7.0 12.2 0.00 0.06 0.06 82 1009.0
20260506155942 52 26 6.1 10.4 0.00 0.06 0.06 81 1008.9
20260506154943 52 12 6.1 9.6 0.00 0.06 0.06 79 1008.9
20260506153944 53 11 6.1 11.3 0.00 0.06 0.06 78 1008.8
20260506152942 53 357 7.0 11.3 0.00 0.06 0.06 78 1008.7
20260506151942 53 345 7.8 13.0 0.00 0.06 0.06 78 1008.7
20260506150942 53 10 5.2 9.6 0.00 0.06 0.06 77 1008.7
20260506145943 54 355 7.0 13.9 0.00 0.06 0.06 77 1008.7
20260506144942 54 16 6.1 10.4 0.00 0.06 0.06 75 1008.7
20260506143942 54 328 6.1 10.4 0.00 0.06 0.06 75 1008.7
20260506142942 54 12 5.2 7.8 0.00 0.06 0.06 75 1008.6
20260506141943 54 295 6.1 8.7 0.00 0.06 0.06 75 1008.6
20260506140942 54 357 6.1 10.4 0.00 0.06 0.06 74 1008.6
20260506135942 54 356 6.1 9.6 0.00 0.06 0.06 77 1008.6
20260506134942 53 41 6.1 11.3 0.00 0.06 0.06 75 1008.6
20260506133942 53 354 7.0 13.9 0.00 0.06 0.06 75 1008.6
20260506131942 53 25 6.1 10.4 0.00 0.06 0.06 75 1008.5
20260506130943 53 21 6.1 11.3 0.00 0.06 0.06 77 1008.5
20260506125943 53 27 7.0 13.9 0.00 0.06 0.06 77 1008.3
20260506124942 53 22 6.1 9.6 0.00 0.06 0.06 79 1008.3
20260506123944 53 30 7.0 12.2 0.00 0.06 0.06 77 1008.3
20260506122942 53 25 7.0 13.9 0.00 0.06 0.06 77 1008.2
20260506121943 53 19 7.0 10.4 0.00 0.06 0.06 77 1008.2
20260506120943 54 13 6.1 12.2 0.00 0.06 0.06 76 1008.1
20260506115943 54 14 5.2 10.4 0.00 0.06 0.06 77 1008.1
20260506114943 54 17 6.1 10.4 0.00 0.06 0.06 77 1008.1
20260506113943 54 359 7.0 12.2 0.00 0.06 0.06 80 1008.0
20260506112943 54 33 6.1 11.3 0.00 0.06 0.06 80 1008.0
20260506111942 54 42 8.7 11.3 0.00 0.06 0.06 82 1008.0
20260506105943 54 33 7.0 11.3 0.00 0.06 0.06 83 1008.1